| time (UTC) | temp F | wind direction | speed MPH | gust MPH | rain 1hr in | rain 24hr in | rain mn in | humidity % | barometer mb |
| 20260504020752 | 49 | 160 | 0.0 | 0.0 | 0.00 | 0.02 | 0.02 | 88 | 1012.1 |
| 20260504020249 | 50 | 165 | 0.0 | 0.0 | 0.00 | 0.02 | 0.02 | 87 | 1012.1 |
| 20260504015745 | 50 | 172 | 0.0 | 0.0 | 0.00 | 0.02 | 0.02 | 86 | 1012.1 |
| 20260504015242 | 50 | 165 | 1.0 | 1.0 | 0.00 | 0.02 | 0.02 | 85 | 1012.1 |
| 20260504014737 | 50 | 167 | 0.0 | 1.0 | 0.00 | 0.02 | 0.02 | 85 | 1012.4 |
| 20260504014234 | 51 | 200 | 1.0 | 1.0 | 0.07 | 0.02 | 0.02 | 83 | 1012.1 |
| 20260504013732 | 51 | 272 | 5.0 | 7.0 | 0.00 | 0.01 | 0.01 | 80 | 1012.1 |
| 20260504013229 | 51 | 201 | 3.0 | 5.0 | 0.00 | 0.01 | 0.01 | 80 | 1012.4 |
| 20260504012726 | 52 | 213 | 5.0 | 6.0 | 0.00 | 0.01 | 0.01 | 78 | 1012.4 |
| 20260504012224 | 52 | 212 | 3.0 | 3.0 | 0.00 | 0.01 | 0.01 | 76 | 1012.1 |
| 20260504011720 | 52 | 160 | 1.0 | 2.0 | 0.00 | 0.01 | 0.01 | 75 | 1012.1 |
| 20260504011217 | 52 | 138 | 2.0 | 2.0 | 0.00 | 0.01 | 0.01 | 75 | 1011.7 |
| 20260504010713 | 52 | 157 | 2.0 | 3.0 | 0.00 | 0.01 | 0.01 | 74 | 1011.7 |
| 20260504010209 | 52 | 260 | 3.0 | 5.0 | 0.00 | 0.01 | 0.01 | 74 | 1011.7 |
| 20260504005706 | 52 | 135 | 3.0 | 6.0 | 0.00 | 0.01 | 0.01 | 73 | 1011.4 |
| 20260504005203 | 52 | 133 | 2.0 | 2.0 | 0.05 | 0.01 | 0.01 | 74 | 1011.7 |
| 20260504004700 | 52 | 163 | 2.0 | 2.0 | 0.05 | 0.01 | 0.01 | 72 | 1011.4 |
| 20260504004157 | 53 | 160 | 1.0 | 1.0 | 0.00 | 0.00 | 0.00 | 70 | 1011.4 |
| 20260504003653 | 53 | 182 | 2.0 | 3.0 | 0.00 | 0.00 | 0.00 | 67 | 1011.4 |
| 20260504003151 | 54 | 335 | 3.0 | 5.0 | 0.00 | 0.00 | 0.00 | 64 | 1011.4 |
| 20260504002647 | 54 | 107 | 4.0 | 6.0 | 0.00 | 0.00 | 0.00 | 63 | 1011.4 |
| 20260504002145 | 54 | 280 | 0.0 | 1.0 | 0.00 | 0.00 | 0.00 | 62 | 1011.4 |
| 20260504001643 | 54 | 157 | 0.0 | 0.0 | 0.00 | 0.00 | 0.00 | 63 | 1010.7 |
| 20260504001138 | 54 | 160 | 1.0 | 1.0 | 0.00 | 0.00 | 0.00 | 65 | 1010.7 |
| 20260504000636 | 54 | 161 | 0.0 | 0.0 | 0.00 | 0.00 | 0.00 | 60 | 1011.1 |
| 20260504000133 | 54 | 135 | 0.0 | 1.0 | 0.00 | 0.00 | 0.00 | 60 | 1010.4 |
| 20260503235631 | 54 | 145 | 1.0 | 1.0 | 0.00 | 0.00 | 0.00 | 59 | 1010.7 |
| 20260503235127 | 54 | 159 | 0.0 | 0.0 | 0.00 | 0.00 | 0.00 | 60 | 1010.7 |
| 20260503234626 | 54 | 162 | 0.0 | 0.0 | 0.00 | 0.00 | 0.00 | 59 | 1010.7 |
| 20260503234123 | 54 | 160 | 0.0 | 0.0 | 0.00 | 0.00 | 0.00 | 59 | 1010.7 |
| 20260503233620 | 54 | 148 | 0.0 | 0.0 | 0.00 | 0.00 | 0.00 | 58 | 1010.7 |
| 20260503233116 | 54 | 162 | 0.0 | 1.0 | 0.00 | 0.00 | 0.00 | 59 | 1010.7 |
| 20260503232613 | 54 | 171 | 0.0 | 1.0 | 0.00 | 0.00 | 0.00 | 59 | 1011.1 |
| 20260503232110 | 54 | 175 | 1.0 | 2.0 | 0.00 | 0.00 | 0.00 | 58 | 1011.1 |
| 20260503231608 | 55 | 274 | 6.0 | 9.0 | 0.00 | 0.00 | 0.00 | 58 | 1011.4 |
| 20260503231104 | 55 | 252 | 3.0 | 3.0 | 0.00 | 0.00 | 0.00 | 55 | 1011.7 |
| 20260503230601 | 55 | 91 | 2.0 | 2.0 | 0.00 | 0.00 | 0.00 | 55 | 1011.7 |
| 20260503230058 | 56 | 267 | 5.0 | 6.0 | 0.00 | 0.00 | 0.00 | 55 | 1011.4 |
| 20260503225555 | 56 | 160 | 2.0 | 3.0 | 0.00 | 0.00 | 0.00 | 53 | 1011.4 |
| 20260503225050 | 56 | 204 | 2.0 | 2.0 | 0.00 | 0.00 | 0.00 | 53 | 1011.4 |
| 20260503224548 | 56 | 179 | 2.0 | 3.0 | 0.00 | 0.00 | 0.00 | 51 | 1011.4 |
| 20260503224046 | 56 | 250 | 4.0 | 5.0 | 0.00 | 0.00 | 0.00 | 51 | 1011.4 |
| 20260503223544 | 56 | 172 | 2.0 | 2.0 | 0.00 | 0.00 | 0.00 | 52 | 1011.1 |
| 20260503223039 | 57 | 160 | 1.0 | 2.0 | 0.00 | 0.00 | 0.00 | 50 | 1011.1 |
| 20260503222538 | 57 | 163 | 2.0 | 2.0 | 0.00 | 0.00 | 0.00 | 48 | 1011.1 |
| 20260503222035 | 57 | 169 | 1.0 | 1.0 | 0.00 | 0.00 | 0.00 | 49 | 1011.1 |
| 20260503221533 | 57 | 137 | 1.0 | 2.0 | 0.00 | 0.00 | 0.00 | 49 | 1011.1 |
| 20260503221030 | 57 | 152 | 0.0 | 0.0 | 0.00 | 0.00 | 0.00 | 51 | 1011.1 |
| 20260503220526 | 57 | 162 | 0.0 | 0.0 | 0.00 | 0.00 | 0.00 | 50 | 1011.1 |
| 20260503220023 | 57 | 164 | 1.0 | 1.0 | 0.00 | 0.00 | 0.00 | 50 | 1011.1 |
| 20260503215520 | 57 | 161 | 2.0 | 2.0 | 0.00 | 0.00 | 0.00 | 50 | 1011.4 |
| 20260503215017 | 57 | 191 | 0.0 | 0.0 | 0.00 | 0.00 | 0.00 | 51 | 1011.4 |
| 20260503214516 | 57 | 172 | 2.0 | 2.0 | 0.00 | 0.00 | 0.00 | 51 | 1011.4 |
| 20260503214012 | 57 | 163 | 0.0 | 0.0 | 0.00 | 0.00 | 0.00 | 51 | 1011.4 |
| 20260503213511 | 57 | 178 | 1.0 | 1.0 | 0.00 | 0.00 | 0.00 | 50 | 1011.1 |
| 20260503213007 | 56 | 151 | 2.0 | 2.0 | 0.00 | 0.00 | 0.00 | 50 | 1011.1 |
| 20260503212504 | 56 | 190 | 0.0 | 1.0 | 0.00 | 0.00 | 0.00 | 53 | 1011.1 |
| 20260503212001 | 56 | 203 | 3.0 | 3.0 | 0.00 | 0.00 | 0.00 | 52 | 1011.1 |
| 20260503211458 | 56 | 159 | 1.0 | 2.0 | 0.00 | 0.00 | 0.00 | 53 | 1011.1 |
| 20260503210954 | 56 | 141 | 3.0 | 3.0 | 0.00 | 0.00 | 0.00 | 53 | 1011.4 |
| 20260503210451 | 57 | 243 | 4.0 | 5.0 | 0.00 | 0.00 | 0.00 | 52 | 1011.4 |
| 20260503205951 | 57 | 212 | 2.0 | 3.0 | 0.00 | 0.00 | 0.00 | 54 | 1011.1 |
| 20260503205449 | 56 | 200 | 3.0 | 3.0 | 0.00 | 0.00 | 0.00 | 51 | 1011.4 |
| 20260503204945 | 57 | 148 | 2.0 | 3.0 | 0.00 | 0.00 | 0.00 | 50 | 1011.4 |
| 20260503204442 | 56 | 197 | 0.0 | 0.0 | 0.00 | 0.00 | 0.00 | 55 | 1011.4 |
| 20260503203939 | 56 | 234 | 2.0 | 2.0 | 0.00 | 0.00 | 0.00 | 51 | 1011.4 |
| 20260503203437 | 57 | 159 | 2.0 | 3.0 | 0.00 | 0.00 | 0.00 | 50 | 1011.4 |
| 20260503202933 | 56 | 164 | 0.0 | 0.0 | 0.00 | 0.00 | 0.00 | 49 | 1011.4 |
| 20260503202431 | 56 | 243 | 5.0 | 6.0 | 0.00 | 0.00 | 0.00 | 51 | 1011.7 |
| 20260503201930 | 57 | 196 | 4.0 | 5.0 | 0.00 | 0.00 | 0.00 | 50 | 1011.7 |
| 20260503201426 | 57 | 220 | 3.0 | 5.0 | 0.00 | 0.00 | 0.00 | 47 | 1011.7 |
| 20260503200924 | 57 | 263 | 7.0 | 9.0 | 0.00 | 0.00 | 0.00 | 48 | 1011.7 |
| 20260503200420 | 57 | 271 | 4.0 | 7.0 | 0.00 | 0.00 | 0.00 | 48 | 1011.7 |
| 20260503195917 | 57 | 194 | 5.0 | 6.0 | 0.00 | 0.00 | 0.00 | 48 | 1011.7 |
| 20260503195414 | 55 | 189 | 1.0 | 2.0 | 0.00 | 0.00 | 0.00 | 49 | 1011.7 |
| 20260503194911 | 55 | 236 | 3.0 | 5.0 | 0.00 | 0.00 | 0.00 | 46 | 1011.7 |
| 20260503194408 | 55 | 223 | 4.0 | 5.0 | 0.00 | 0.00 | 0.00 | 45 | 1012.1 |
| 20260503193903 | 55 | 182 | 3.0 | 3.0 | 0.00 | 0.00 | 0.00 | 48 | 1012.1 |
| 20260503193359 | 56 | 254 | 4.0 | 6.0 | 0.00 | 0.00 | 0.00 | 48 | 1012.1 |
| 20260503192854 | 56 | 163 | 2.0 | 2.0 | 0.00 | 0.00 | 0.00 | 51 | 1012.1 |
| 20260503192350 | 56 | 210 | 2.0 | 3.0 | 0.00 | 0.00 | 0.00 | 49 | 1012.1 |
| 20260503191847 | 56 | 168 | 1.0 | 1.0 | 0.00 | 0.00 | 0.00 | 50 | 1012.1 |
| 20260503191344 | 56 | 199 | 2.0 | 2.0 | 0.00 | 0.00 | 0.00 | 51 | 1012.1 |
| 20260503190841 | 57 | 262 | 5.0 | 7.0 | 0.00 | 0.00 | 0.00 | 48 | 1012.4 |
| 20260503190338 | 59 | 242 | 4.0 | 6.0 | 0.00 | 0.00 | 0.00 | 46 | 1012.1 |
| 20260503185835 | 57 | 155 | 1.0 | 1.0 | 0.00 | 0.00 | 0.00 | 53 | 1012.1 |
| 20260503185331 | 56 | 97 | 2.0 | 2.0 | 0.00 | 0.00 | 0.00 | 49 | 1012.4 |
| 20260503184826 | 56 | 183 | 2.0 | 2.0 | 0.00 | 0.00 | 0.00 | 47 | 1012.1 |
| 20260503184322 | 57 | 191 | 2.0 | 3.0 | 0.00 | 0.00 | 0.00 | 45 | 1012.1 |
| 20260503183818 | 57 | 317 | 3.0 | 6.0 | 0.00 | 0.00 | 0.00 | 44 | 1012.4 |
| 20260503183315 | 56 | 277 | 3.0 | 5.0 | 0.00 | 0.00 | 0.00 | 48 | 1012.4 |
| 20260503182813 | 57 | 162 | 2.0 | 3.0 | 0.00 | 0.00 | 0.00 | 44 | 1012.4 |
| 20260503182312 | 57 | 231 | 2.0 | 2.0 | 0.00 | 0.00 | 0.00 | 46 | 1012.7 |
| 20260503181809 | 58 | 217 | 1.0 | 2.0 | 0.00 | 0.00 | 0.00 | 48 | 1012.4 |
| 20260503181306 | 59 | 212 | 3.0 | 3.0 | 0.00 | 0.00 | 0.00 | 48 | 1012.7 |
| 20260503180802 | 58 | 254 | 3.0 | 3.0 | 0.00 | 0.00 | 0.00 | 47 | 1012.7 |
| 20260503180300 | 57 | 268 | 3.0 | 3.0 | 0.00 | 0.00 | 0.00 | 49 | 1012.7 |
| 20260503175756 | 58 | 205 | 2.0 | 2.0 | 0.00 | 0.00 | 0.00 | 46 | 1013.1 |
| 20260503175254 | 56 | 202 | 3.0 | 3.0 | 0.00 | 0.00 | 0.00 | 44 | 1013.1 |
| 20260503174749 | 57 | 165 | 2.0 | 2.0 | 0.00 | 0.00 | 0.00 | 52 | 1012.7 |
| 20260503174248 | 58 | 189 | 2.0 | 3.0 | 0.00 | 0.00 | 0.00 | 47 | 1013.1 |
| 20260503173748 | 57 | 212 | 2.0 | 2.0 | 0.00 | 0.00 | 0.00 | 42 | 1013.1 |
| 20260503173244 | 55 | 164 | 1.0 | 3.0 | 0.00 | 0.00 | 0.00 | 45 | 1013.5 |
| 20260503172741 | 56 | 286 | 2.0 | 3.0 | 0.00 | 0.00 | 0.00 | 47 | 1013.1 |
| 20260503172238 | 54 | 105 | 2.0 | 2.0 | 0.00 | 0.00 | 0.00 | 48 | 1013.5 |
| 20260503171735 | 56 | 221 | 4.0 | 5.0 | 0.00 | 0.00 | 0.00 | 45 | 1013.1 |
| 20260503171232 | 56 | 343 | 4.0 | 7.0 | 0.00 | 0.00 | 0.00 | 48 | 1013.5 |
| 20260503170729 | 55 | 167 | 1.0 | 1.0 | 0.00 | 0.00 | 0.00 | 49 | 1013.5 |
| 20260503170226 | 55 | 357 | 3.0 | 5.0 | 0.00 | 0.00 | 0.00 | 45 | 1013.5 |
| 20260503160147 | 52 | 219 | 3.0 | 5.0 | 0.00 | 0.00 | 0.00 | 47 | 1014.5 |
| 20260503150617 | 51 | 183 | 5.0 | 7.0 | 0.00 | 0.00 | 0.00 | 46 | 1015.2 |
| 20260503150114 | 50 | 281 | 4.0 | 7.0 | 0.00 | 0.00 | 0.00 | 48 | 1015.2 |
| 20260503131007 | 46 | 143 | 1.0 | 2.0 | 0.00 | 0.00 | 0.00 | 67 | 1015.6 |
| 20260503130504 | 47 | 282 | 5.0 | 7.0 | 0.00 | 0.00 | 0.00 | 65 | 1015.6 |
| 20260503110355 | 39 | 150 | 0.0 | 0.0 | 0.00 | 0.00 | 0.00 | 95 | 1015.2 |
| 20260503090241 | 39 | 161 | 0.0 | 0.0 | 0.00 | 0.00 | 0.00 | 84 | 1014.9 |
| 20260503081208 | 40 | 203 | 0.0 | 1.0 | 0.00 | 0.00 | 0.00 | 87 | 1014.9 |
| 20260503080704 | 40 | 160 | 1.0 | 1.0 | 0.00 | 0.00 | 0.00 | 87 | 1014.9 |
| 20260503080201 | 40 | 158 | 0.0 | 0.0 | 0.00 | 0.00 | 0.00 | 87 | 1014.9 |
| 20260503072637 | 40 | 164 | 0.0 | 0.0 | 0.00 | 0.00 | 0.00 | 88 | 1014.9 |
| 20260503072134 | 40 | 157 | 0.0 | 0.0 | 0.00 | 0.00 | 0.00 | 88 | 1014.9 |
| 20260503071631 | 40 | 165 | 0.0 | 0.0 | 0.00 | 0.00 | 0.00 | 88 | 1014.9 |
| 20260503071128 | 40 | 151 | 0.0 | 0.0 | 0.00 | 0.00 | 0.00 | 88 | 1014.9 |
| 20260503070625 | 40 | 155 | 0.0 | 0.0 | 0.00 | 0.00 | 0.00 | 87 | 1014.9 |
| 20260503070123 | 40 | 160 | 0.0 | 0.0 | 0.00 | 0.00 | 0.00 | 88 | 1014.9 |
| 20260503055043 | 40 | 143 | 0.0 | 0.0 | 0.00 | 0.00 | 0.00 | 89 | 1014.9 |
| 20260503054539 | 40 | 157 | 0.0 | 0.0 | 0.00 | 0.00 | 0.00 | 89 | 1014.9 |
| 20260503054037 | 40 | 157 | 0.0 | 0.0 | 0.00 | 0.00 | 0.00 | 88 | 1014.9 |
| 20260503053535 | 40 | 160 | 0.0 | 0.0 | 0.00 | 0.00 | 0.00 | 88 | 1014.9 |
| 20260503053032 | 40 | 157 | 0.0 | 0.0 | 0.00 | 0.00 | 0.00 | 88 | 1015.2 |
| 20260503052529 | 40 | 158 | 0.0 | 0.0 | 0.00 | 0.00 | 0.00 | 88 | 1015.2 |
| 20260503052025 | 40 | 176 | 0.0 | 0.0 | 0.00 | 0.00 | 0.00 | 88 | 1015.2 |
| 20260503051520 | 40 | 158 | 0.0 | 0.0 | 0.00 | 0.00 | 0.00 | 87 | 1015.2 |
| 20260503051019 | 40 | 160 | 0.0 | 0.0 | 0.00 | 0.00 | 0.00 | 87 | 1015.2 |
| 20260503050514 | 40 | 164 | 0.0 | 0.0 | 0.00 | 0.00 | 0.00 | 87 | 1015.6 |
| 20260503050012 | 40 | 120 | 0.0 | 0.0 | 0.00 | 0.00 | 0.00 | 87 | 1015.2 |
| 20260503045509 | 40 | 149 | 0.0 | 0.0 | 0.00 | 0.00 | 0.00 | 87 | 1015.6 |
| 20260503045006 | 40 | 133 | 0.0 | 0.0 | 0.00 | 0.00 | 0.00 | 87 | 1015.6 |
| 20260503044502 | 40 | 155 | 0.0 | 0.0 | 0.00 | 0.00 | 0.00 | 87 | 1015.6 |
| 20260503044000 | 40 | 158 | 0.0 | 0.0 | 0.00 | 0.00 | 0.00 | 87 | 1015.6 |
| 20260503043456 | 40 | 157 | 0.0 | 0.0 | 0.00 | 0.00 | 0.00 | 87 | 1015.9 |
| 20260503042953 | 40 | 161 | 0.0 | 0.0 | 0.00 | 0.00 | 0.00 | 87 | 1015.6 |
| 20260503042449 | 40 | 158 | 0.0 | 0.0 | 0.00 | 0.00 | 0.00 | 86 | 1015.9 |
| 20260503041946 | 40 | 163 | 0.0 | 0.0 | 0.00 | 0.00 | 0.00 | 86 | 1015.9 |
| 20260503041443 | 40 | 160 | 0.0 | 0.0 | 0.00 | 0.00 | 0.00 | 86 | 1015.9 |
| 20260503040941 | 40 | 158 | 0.0 | 0.0 | 0.00 | 0.00 | 0.00 | 86 | 1015.9 |
| 20260503040437 | 40 | 156 | 0.0 | 0.0 | 0.00 | 0.00 | 0.00 | 86 | 1015.9 |
| 20260503035935 | 40 | 163 | 0.0 | 0.0 | 0.00 | 0.00 | 0.00 | 86 | 1015.9 |
| 20260503035431 | 40 | 158 | 0.0 | 0.0 | 0.00 | 0.00 | 0.00 | 85 | 1015.9 |
| 20260503034929 | 40 | 163 | 0.0 | 0.0 | 0.00 | 0.00 | 0.00 | 85 | 1015.9 |
| 20260503034427 | 40 | 155 | 0.0 | 0.0 | 0.00 | 0.00 | 0.00 | 84 | 1015.9 |
| 20260503033923 | 40 | 164 | 0.0 | 0.0 | 0.00 | 0.00 | 0.00 | 84 | 1015.9 |
| 20260503033421 | 40 | 180 | 0.0 | 0.0 | 0.00 | 0.00 | 0.00 | 85 | 1015.9 |
| 20260503032919 | 40 | 163 | 0.0 | 0.0 | 0.00 | 0.00 | 0.00 | 85 | 1015.9 |
| 20260503032417 | 40 | 160 | 0.0 | 0.0 | 0.00 | 0.00 | 0.00 | 86 | 1016.2 |
| 20260503031914 | 40 | 155 | 0.0 | 0.0 | 0.00 | 0.00 | 0.00 | 86 | 1015.9 |
| 20260503031412 | 40 | 162 | 0.0 | 0.0 | 0.00 | 0.00 | 0.00 | 86 | 1015.9 |
| 20260503030908 | 40 | 241 | 1.0 | 1.0 | 0.00 | 0.00 | 0.00 | 87 | 1015.9 |
| 20260503030405 | 40 | 154 | 0.0 | 0.0 | 0.00 | 0.00 | 0.00 | 87 | 1015.9 |
| 20260503025901 | 40 | 154 | 0.0 | 0.0 | 0.00 | 0.00 | 0.00 | 87 | 1015.9 |
| 20260503025359 | 39 | 171 | 0.0 | 0.0 | 0.00 | 0.00 | 0.00 | 88 | 1016.2 |
| 20260503024856 | 39 | 199 | 0.0 | 0.0 | 0.00 | 0.00 | 0.00 | 89 | 1015.9 |
| 20260503024353 | 39 | 175 | 0.0 | 0.0 | 0.00 | 0.00 | 0.00 | 90 | 1015.9 |
| 20260503023849 | 39 | 158 | 0.0 | 0.0 | 0.00 | 0.00 | 0.00 | 90 | 1015.9 |
| 20260503023341 | 38 | 171 | 0.0 | 0.0 | 0.00 | 0.00 | 0.00 | 92 | 1015.9 |
| 20260503022838 | 38 | 158 | 0.0 | 0.0 | 0.00 | 0.00 | 0.00 | 92 | 1016.6 |
| 20260503022337 | 38 | 158 | 0.0 | 0.0 | 0.00 | 0.00 | 0.00 | 92 | 1016.2 |
| 20260503021834 | 38 | 158 | 0.0 | 0.0 | 0.00 | 0.00 | 0.00 | 92 | 1016.2 |
| 20260503021330 | 37 | 157 | 0.0 | 0.0 | 0.00 | 0.00 | 0.00 | 92 | 1016.2 |